GW4419 Weather Reports


time (UTC)temp
C
wind
direction
speed
KPH
gust
KPH
rain 1hr
cm
rain 24hr
cm
rain mn
cm
humidity
%
barometer
mb
20260510203559 21 296 4.8 4.8 0.00 0.00 0.00 42 1021.6
20260510203056 22 21 1.6 4.8 0.00 0.00 0.00 42 1021.5
20260510202554 21 288 1.6 1.6 0.00 0.00 0.00 42 1021.6
20260510202051 21 271 1.6 3.2 0.00 0.00 0.00 43 1021.7
20260510201548 21 276 3.2 3.2 0.00 0.00 0.00 42 1021.7
20260510201045 22 289 3.2 3.2 0.00 0.00 0.00 39 1021.7
20260510200541 22 34 3.2 3.2 0.00 0.00 0.00 41 1021.5
20260510200039 22 300 1.6 1.6 0.00 0.00 0.00 39 1021.8
20260510195536 21 263 3.2 3.2 0.00 0.00 0.00 39 1021.7
20260510195032 21 277 3.2 4.8 0.00 0.00 0.00 37 1021.8
20260510194527 22 170 1.6 1.6 0.00 0.00 0.00 38 1021.7
20260510194024 21 282 0.0 1.6 0.00 0.00 0.00 39 1021.6
20260510193519 22 315 1.6 3.2 0.00 0.00 0.00 41 1021.6
20260510193015 22 133 4.8 8.0 0.00 0.00 0.00 38 1021.9
20260510192509 21 88 0.0 1.6 0.00 0.00 0.00 41 1021.8
20260510192006 21 262 4.8 8.0 0.00 0.00 0.00 39 1022.0
20260510191502 21 318 1.6 1.6 0.00 0.00 0.00 38 1021.9
20260510190959 21 300 0.0 1.6 0.00 0.00 0.00 39 1022.0
20260510190456 21 248 3.2 4.8 0.00 0.00 0.00 37 1021.9
20260510185953 21 286 1.6 3.2 0.00 0.00 0.00 40 1022.0
20260510185450 21 88 6.4 8.0 0.00 0.00 0.00 39 1021.9
20260510184947 22 311 3.2 3.2 0.00 0.00 0.00 38 1021.8
20260510184445 22 68 3.2 4.8 0.00 0.00 0.00 40 1021.8
20260510183944 21 282 3.2 4.8 0.00 0.00 0.00 39 1021.8
20260510183442 22 233 1.6 3.2 0.00 0.00 0.00 40 1021.7
20260510182941 22 257 3.2 3.2 0.00 0.00 0.00 37 1022.0
20260510182437 21 312 0.0 1.6 0.00 0.00 0.00 41 1021.7
20260510181933 21 259 3.2 3.2 0.00 0.00 0.00 40 1021.9
20260510181432 21 292 3.2 3.2 0.00 0.00 0.00 41 1021.6
20260510180927 21 286 3.2 3.2 0.00 0.00 0.00 41 1021.4
20260510180424 21 287 1.6 1.6 0.00 0.00 0.00 39 1021.5
20260510175921 21 339 1.6 3.2 0.00 0.00 0.00 41 1021.3
20260510175417 21 96 1.6 3.2 0.00 0.00 0.00 40 1021.6
20260510174913 21 231 1.6 1.6 0.00 0.00 0.00 41 1021.4
20260510174411 21 218 1.6 1.6 0.00 0.00 0.00 40 1021.4
20260510173908 21 286 1.6 1.6 0.00 0.00 0.00 40 1021.3
20260510173403 21 58 0.0 0.0 0.00 0.00 0.00 42 1021.5
20260510172900 21 278 0.0 1.6 0.00 0.00 0.00 40 1021.4
20260510172355 21 266 4.8 4.8 0.00 0.00 0.00 42 1021.4
20260510171852 21 283 1.6 1.6 0.00 0.00 0.00 44 1021.4
20260510171349 20 194 1.6 3.2 0.00 0.00 0.00 41 1021.3
20260510170846 21 193 0.0 1.6 0.00 0.00 0.00 45 1021.2
20260510170343 20 48 0.0 0.0 0.00 0.00 0.00 47 1021.1
20260510165838 20 307 0.0 0.0 0.00 0.00 0.00 45 1021.4
20260510165335 20 324 0.0 0.0 0.00 0.00 0.00 48 1021.2
20260510164832 20 90 4.8 8.0 0.00 0.00 0.00 42 1021.2
20260510164329 20 289 3.2 3.2 0.00 0.00 0.00 44 1021.4
20260510163829 20 230 1.6 1.6 0.00 0.00 0.00 44 1021.4
20260510163326 20 329 6.4 8.0 0.00 0.00 0.00 45 1021.3
20260510162825 20 285 6.4 8.0 0.00 0.00 0.00 46 1021.3
20260510162318 19 236 0.0 1.6 0.00 0.00 0.00 44 1021.1
20260510161813 19 225 0.0 1.6 0.00 0.00 0.00 45 1021.0
20260510161309 18 2 0.0 0.0 0.00 0.00 0.00 48 1021.3
20260510160806 18 87 4.8 4.8 0.00 0.00 0.00 47 1021.0
20260510160302 18 137 0.0 1.6 0.00 0.00 0.00 46 1020.9
20260510155757 18 192 1.6 3.2 0.00 0.00 0.00 47 1021.0
20260510155253 18 326 4.8 4.8 0.00 0.00 0.00 45 1020.9
20260510154749 17 2 1.6 1.6 0.00 0.00 0.00 46 1020.9
20260510154245 17 282 1.6 3.2 0.00 0.00 0.00 51 1020.8
20260510153740 17 319 1.6 3.2 0.00 0.00 0.00 53 1020.9
20260510153236 17 297 3.2 8.0 0.00 0.00 0.00 53 1020.7
20260510152733 17 270 3.2 3.2 0.00 0.00 0.00 53 1020.9
20260510152229 17 310 4.8 4.8 0.00 0.00 0.00 54 1020.9
20260510151726 17 243 1.6 1.6 0.00 0.00 0.00 52 1020.8
20260510151225 17 268 4.8 8.0 0.00 0.00 0.00 52 1021.0
20260510150720 18 60 3.2 4.8 0.00 0.00 0.00 53 1021.1
20260510150215 17 280 0.0 1.6 0.00 0.00 0.00 54 1021.0
20260510145712 17 278 3.2 8.0 0.00 0.00 0.00 54 1021.2
20260510145208 17 48 0.0 0.0 0.00 0.00 0.00 58 1021.1
20260510144705 17 301 0.0 1.6 0.00 0.00 0.00 58 1021.0
20260510144201 18 341 3.2 4.8 0.00 0.00 0.00 59 1021.1
20260510143656 18 293 0.0 0.0 0.00 0.00 0.00 61 1020.9
20260510143153 18 293 1.6 1.6 0.00 0.00 0.00 60 1020.8
20260510142649 18 32 0.0 0.0 0.00 0.00 0.00 60 1020.7
20260510142146 18 97 4.8 9.7 0.00 0.00 0.00 58 1020.6
20260510141643 17 41 0.0 1.6 0.00 0.00 0.00 60 1020.3
20260510141142 17 310 1.6 1.6 0.00 0.00 0.00 60 1020.3
20260510140637 17 328 0.0 0.0 0.00 0.00 0.00 61 1020.2
20260510140137 17 5 1.6 3.2 0.00 0.00 0.00 61 1020.1
20260510135632 17 325 0.0 0.0 0.00 0.00 0.00 63 1020.0
20260510135129 17 8 1.6 3.2 0.00 0.00 0.00 63 1020.0
20260510134626 17 302 0.0 0.0 0.00 0.00 0.00 66 1020.1
20260510134123 17 285 0.0 0.0 0.00 0.00 0.00 67 1020.2
20260510133619 16 291 0.0 0.0 0.00 0.00 0.00 67 1020.2
20260510133114 16 281 0.0 1.6 0.00 0.00 0.00 70 1020.1
20260510132612 16 289 0.0 0.0 0.00 0.00 0.00 72 1019.9
20260510132109 16 20 6.4 8.0 0.00 0.00 0.00 71 1019.8
20260510131606 16 21 1.6 3.2 0.00 0.00 0.00 74 1019.7
20260510131103 16 303 1.6 3.2 0.00 0.00 0.00 76 1019.5
20260510130559 16 93 0.0 1.6 0.00 0.00 0.00 76 1019.4
20260510130057 15 356 1.6 1.6 0.00 0.00 0.00 77 1019.4
20260510125553 15 302 1.6 1.6 0.00 0.00 0.00 81 1019.1
20260510125049 15 249 1.6 1.6 0.00 0.00 0.00 81 1019.1
20260510124546 15 352 1.6 1.6 0.00 0.00 0.00 83 1019.1
20260510124044 15 37 3.2 4.8 0.00 0.00 0.00 82 1018.9
20260510123539 15 281 0.0 0.0 0.00 0.00 0.00 83 1019.0
20260510123035 15 277 1.6 3.2 0.00 0.00 0.00 83 1019.1
20260510122531 15 289 0.0 0.0 0.00 0.00 0.00 84 1019.3
20260510122027 15 343 0.0 0.0 0.00 0.00 0.00 83 1019.0
20260510121525 14 328 3.2 3.2 0.00 0.00 0.00 82 1018.9
20260510121022 14 340 1.6 1.6 0.00 0.00 0.00 82 1018.9
20260510120519 14 292 0.0 0.0 0.00 0.00 0.00 82 1018.9
20260510120015 14 311 1.6 1.6 0.00 0.00 0.00 81 1018.6
20260510115512 14 280 0.0 1.6 0.00 0.00 0.00 81 1018.6
20260510115008 14 287 0.0 1.6 0.00 0.00 0.00 81 1018.3
20260510114504 14 313 0.0 0.0 0.00 0.00 0.00 83 1018.4
20260510114000 14 16 0.0 1.6 0.00 0.00 0.00 82 1018.3
20260510113455 14 323 0.0 1.6 0.00 0.00 0.00 82 1018.0
20260510112953 15 253 0.0 0.0 0.00 0.00 0.00 83 1018.0
20260510112450 15 325 0.0 1.6 0.00 0.00 0.00 82 1017.7
20260510111947 14 244 1.6 1.6 0.00 0.00 0.00 83 1017.8
20260510111443 14 290 4.8 8.0 0.00 0.00 0.00 83 1017.5
20260510110939 14 245 3.2 3.2 0.00 0.00 0.00 83 1017.5
20260510110435 14 273 0.0 0.0 0.00 0.00 0.00 81 1017.6
20260510105931 14 292 0.0 0.0 0.00 0.00 0.00 81 1017.8
20260510105426 14 294 0.0 0.0 0.00 0.00 0.00 82 1017.4
20260510104922 14 283 0.0 0.0 0.00 0.00 0.00 82 1017.5
20260510104419 15 298 0.0 0.0 0.00 0.00 0.00 83 1017.2
20260510103915 14 21 3.2 4.8 0.00 0.00 0.00 82 1017.2
20260510103408 15 159 0.0 0.0 0.00 0.00 0.00 84 1017.3
20260510102903 14 337 0.0 1.6 0.00 0.00 0.00 82 1017.3
20260510102359 14 325 1.6 1.6 0.00 0.00 0.00 86 1017.0
20260510101856 15 321 0.0 0.0 0.00 0.00 0.00 86 1017.3
20260510101354 14 52 1.6 1.6 0.00 0.00 0.00 86 1016.9
20260510100850 14 268 0.0 0.0 0.00 0.00 0.00 88 1017.0
20260510100342 14 265 0.0 0.0 0.00 0.00 0.00 87 1016.9
20260510095838 14 283 0.0 0.0 0.00 0.00 0.00 87 1017.0
20260510095333 14 314 0.0 0.0 0.00 0.00 0.00 87 1017.1
20260510094833 14 292 0.0 0.0 0.00 0.00 0.00 87 1016.8
20260510094328 14 272 0.0 0.0 0.00 0.00 0.00 86 1016.7
20260510093825 14 319 0.0 0.0 0.00 0.00 0.00 86 1016.5
20260510093321 14 285 0.0 0.0 0.00 0.00 0.00 86 1016.3
20260510092817 14 267 0.0 0.0 0.00 0.00 0.00 85 1016.3
20260510092313 14 266 0.0 0.0 0.00 0.00 0.00 84 1016.3
20260510091809 15 266 0.0 0.0 0.00 0.00 0.00 85 1016.4
20260510091306 15 267 0.0 0.0 0.00 0.00 0.00 83 1016.3
20260510090803 15 268 0.0 0.0 0.00 0.00 0.00 83 1016.5
20260510090300 15 268 0.0 0.0 0.00 0.00 0.00 82 1016.4
20260510085755 14 268 0.0 0.0 0.00 0.00 0.00 83 1016.4
20260510085249 15 268 0.0 0.0 0.00 0.00 0.00 83 1016.2
20260510084745 15 268 0.0 0.0 0.00 0.00 0.00 81 1016.1
20260510084243 15 268 0.0 0.0 0.00 0.00 0.00 81 1015.9
20260510083739 15 268 0.0 0.0 0.00 0.00 0.00 80 1015.8
20260510083237 15 269 0.0 0.0 0.00 0.00 0.00 79 1015.9
20260510082737 15 269 0.0 0.0 0.00 0.00 0.00 79 1015.8
20260510082234 15 270 0.0 0.0 0.00 0.00 0.00 77 1015.9
20260510081733 15 279 0.0 0.0 0.00 0.00 0.00 77 1016.0
20260510081229 15 280 0.0 0.0 0.00 0.00 0.00 75 1015.9
20260510080724 15 280 0.0 0.0 0.00 0.00 0.00 76 1015.9
20260510080220 15 280 0.0 0.0 0.00 0.00 0.00 74 1015.9
20260510075717 15 280 0.0 0.0 0.00 0.00 0.00 74 1016.0
20260510075215 15 261 0.0 0.0 0.00 0.00 0.00 77 1016.0
20260510074712 14 261 0.0 0.0 0.00 0.00 0.00 82 1015.8
20260510074208 14 261 0.0 0.0 0.00 0.00 0.00 82 1016.1
20260510073705 14 261 0.0 0.0 0.00 0.00 0.00 82 1015.8
20260510073200 15 261 0.0 0.0 0.00 0.00 0.00 82 1015.9
20260510072657 15 261 0.0 0.0 0.00 0.00 0.00 82 1015.7
20260510072153 15 262 0.0 0.0 0.00 0.00 0.00 81 1016.0
20260510071649 15 261 0.0 0.0 0.00 0.00 0.00 81 1015.6
20260510071147 15 261 0.0 0.0 0.00 0.00 0.00 81 1015.7
20260510070644 15 262 0.0 0.0 0.00 0.00 0.00 77 1015.6
20260510070142 15 261 0.0 0.0 0.00 0.00 0.00 78 1015.7
20260510065638 15 261 0.0 0.0 0.00 0.00 0.00 78 1015.3
20260510065134 15 261 0.0 0.0 0.00 0.00 0.00 78 1015.4
20260510064631 15 261 0.0 0.0 0.00 0.00 0.00 78 1015.4
20260510064127 15 261 0.0 0.0 0.00 0.00 0.00 76 1015.7
20260510063623 15 261 0.0 0.0 0.00 0.00 0.00 77 1015.6
20260510063121 15 261 0.0 0.0 0.00 0.00 0.00 80 1015.6
20260510062617 15 261 0.0 0.0 0.00 0.00 0.00 76 1015.4
20260510062113 15 261 0.0 0.0 0.00 0.00 0.00 76 1015.7
20260510061609 15 261 0.0 0.0 0.00 0.00 0.00 74 1015.4
20260510061106 16 261 0.0 0.0 0.00 0.00 0.00 74 1015.7
20260510060602 16 261 0.0 0.0 0.00 0.00 0.00 76 1015.8
20260510060059 16 261 0.0 0.0 0.00 0.00 0.00 73 1015.7
20260510055554 15 261 0.0 0.0 0.00 0.00 0.00 73 1015.7
20260510055053 15 261 0.0 0.0 0.00 0.00 0.00 73 1015.8
20260510054548 15 261 0.0 0.0 0.00 0.00 0.00 76 1015.6
20260510054044 16 261 0.0 0.0 0.00 0.00 0.00 73 1015.4
20260510053544 16 261 0.0 0.0 0.00 0.00 0.00 71 1015.4
20260510053041 16 261 0.0 0.0 0.00 0.00 0.00 71 1015.4
20260510052536 16 261 0.0 0.0 0.00 0.00 0.00 71 1015.6
20260510052033 16 261 0.0 0.0 0.00 0.00 0.00 72 1015.4
20260510051528 16 261 0.0 0.0 0.00 0.00 0.00 70 1015.6
20260510051026 16 261 0.0 0.0 0.00 0.00 0.00 68 1015.6
20260510050523 16 261 0.0 0.0 0.00 0.00 0.00 68 1015.4
20260510050020 16 261 0.0 0.0 0.00 0.00 0.00 68 1015.3
20260510045517 16 261 0.0 0.0 0.00 0.00 0.00 68 1015.4
20260510045012 17 261 0.0 0.0 0.00 0.00 0.00 68 1015.4
20260510044510 17 266 1.6 1.6 0.00 0.00 0.00 66 1015.4
20260510044008 17 286 1.6 1.6 0.00 0.00 0.00 67 1015.2
20260510043502 16 285 0.0 0.0 0.00 0.00 0.00 62 1014.9
20260510043001 16 283 0.0 0.0 0.00 0.00 0.00 63 1014.8
20260510042457 16 286 0.0 0.0 0.00 0.00 0.00 65 1014.4
20260510041952 16 287 0.0 0.0 0.00 0.00 0.00 67 1014.3
20260510041450 16 287 0.0 0.0 0.00 0.00 0.00 64 1014.2
20260510040948 16 287 0.0 0.0 0.00 0.00 0.00 64 1014.0
20260510040444 16 287 0.0 0.0 0.00 0.00 0.00 64 1014.0
20260510035940 17 287 0.0 0.0 0.00 0.00 0.00 63 1014.3
20260510035436 17 287 0.0 0.0 0.00 0.00 0.00 62 1014.1
20260510034936 17 287 0.0 0.0 0.00 0.00 0.00 62 1014.3
20260510034435 17 287 0.0 0.0 0.00 0.00 0.00 61 1014.0
20260510033931 16 287 0.0 0.0 0.00 0.00 0.00 64 1014.2
20260510033427 16 289 0.0 0.0 0.00 0.00 0.00 63 1014.2
20260510032924 16 289 0.0 0.0 0.00 0.00 0.00 65 1014.1
20260510032421 16 289 0.0 0.0 0.00 0.00 0.00 65 1014.1
20260510031916 16 289 0.0 0.0 0.00 0.00 0.00 65 1014.1
20260510031412 16 289 0.0 0.0 0.00 0.00 0.00 66 1014.1
20260510030907 17 289 0.0 0.0 0.00 0.00 0.00 66 1014.2
20260510030404 17 289 0.0 0.0 0.00 0.00 0.00 64 1014.2
20260510025902 17 289 0.0 0.0 0.00 0.00 0.00 65 1014.2
20260510025359 17 289 0.0 0.0 0.00 0.00 0.00 69 1013.9
20260510024856 17 289 0.0 0.0 0.00 0.00 0.00 68 1013.9
20260510024352 17 289 0.0 0.0 0.00 0.00 0.00 67 1013.8
20260510023848 17 289 0.0 0.0 0.00 0.00 0.00 66 1013.7
20260510023345 17 289 0.0 0.0 0.00 0.00 0.00 66 1013.6
20260510022843 17 289 0.0 0.0 0.00 0.00 0.00 67 1013.5
20260510022341 17 289 0.0 0.0 0.00 0.00 0.00 70 1013.3
20260510021840 17 289 0.0 0.0 0.00 0.00 0.00 69 1013.2
20260510021339 17 289 0.0 0.0 0.00 0.00 0.00 74 1012.9
20260510020834 17 289 0.0 0.0 0.00 0.00 0.00 72 1012.9
20260510020329 17 289 0.0 0.0 0.00 0.00 0.00 71 1012.8
20260510015825 17 289 0.0 0.0 0.00 0.00 0.00 70 1012.9
20260510015321 17 289 0.0 0.0 0.00 0.00 0.00 69 1012.7
20260510014816 17 289 0.0 0.0 0.00 0.00 0.00 71 1012.7
20260510014314 17 289 0.0 0.0 0.00 0.00 0.00 72 1012.6
20260510013810 17 289 0.0 0.0 0.00 0.00 0.00 71 1012.5
20260510013305 18 289 0.0 0.0 0.00 0.00 0.00 72 1012.3
20260510012800 18 289 0.0 0.0 0.00 0.00 0.00 74 1012.4
20260510012255 18 289 0.0 0.0 0.00 0.00 0.00 72 1012.3
20260510011754 18 289 0.0 0.0 0.00 0.00 0.00 70 1012.2
20260510011250 19 289 0.0 0.0 0.00 0.00 0.00 70 1012.3
20260510010748 19 289 0.0 0.0 0.00 0.00 0.00 69 1012.1
20260510010244 20 289 0.0 0.0 0.00 0.00 0.00 68 1012.0
20260510005741 20 289 0.0 0.0 0.00 0.00 0.00 66 1011.8
20260510005237 20 289 0.0 0.0 0.00 0.00 0.00 65 1011.9
20260510004735 20 289 0.0 0.0 0.00 0.00 0.00 64 1011.9
20260510004233 20 288 0.0 0.0 0.00 0.00 0.00 65 1011.9
20260510003730 20 289 0.0 0.0 0.00 0.00 0.00 65 1012.0
20260510003226 21 289 0.0 0.0 0.00 0.00 0.00 62 1011.9
20260510002725 21 289 0.0 0.0 0.00 0.00 0.00 61 1011.9
20260510002223 21 289 0.0 0.0 0.00 0.00 0.00 59 1011.8
20260510001719 22 289 0.0 0.0 0.00 0.00 0.00 57 1011.9
20260510001218 22 288 0.0 0.0 0.00 0.00 0.00 55 1011.7
20260510000713 22 288 0.0 0.0 0.00 0.00 0.00 53 1011.7
20260510000211 22 288 0.0 0.0 0.00 0.00 0.00 54 1011.6
20260509235707 22 288 0.0 0.0 0.00 0.00 0.00 48 1011.8
20260509235204 23 289 0.0 0.0 0.00 0.00 0.00 47 1011.9
20260509234700 23 289 0.0 0.0 0.00 0.00 0.00 48 1011.9
20260509234157 23 288 0.0 0.0 0.00 0.00 0.00 48 1011.7
20260509233655 23 289 0.0 0.0 0.00 0.00 0.00 47 1011.8
20260509233153 23 289 0.0 0.0 0.00 0.00 0.00 46 1011.9
20260509232649 23 285 0.0 0.0 0.00 0.00 0.00 46 1011.7
20260509232146 23 285 0.0 0.0 0.00 0.00 0.00 44 1011.8
20260509231642 24 285 0.0 0.0 0.00 0.00 0.00 43 1011.7
20260509231139 24 285 0.0 0.0 0.00 0.00 0.00 41 1011.9
20260509230636 24 285 0.0 0.0 0.00 0.00 0.00 46 1011.8
20260509230133 25 285 0.0 0.0 0.00 0.00 0.00 44 1011.6
20260509225629 25 252 0.0 0.0 0.00 0.00 0.00 39 1011.8
20260509225125 25 258 0.0 0.0 0.00 0.00 0.00 37 1011.7
20260509224620 26 281 0.0 1.6 0.00 0.00 0.00 35 1011.9
20260509224118 26 278 0.0 0.0 0.00 0.00 0.00 35 1011.8
20260509223614 26 305 1.6 1.6 0.00 0.00 0.00 32 1011.9
20260509223112 26 284 0.0 0.0 0.00 0.00 0.00 34 1011.9
20260509222608 26 290 1.6 1.6 0.00 0.00 0.00 34 1011.9
20260509222104 25 259 0.0 0.0 0.00 0.00 0.00 37 1011.9
20260509221559 26 284 0.0 0.0 0.00 0.00 0.00 42 1011.8
20260509221056 26 258 0.0 0.0 0.00 0.00 0.00 36 1011.6
20260509220552 26 289 0.0 0.0 0.00 0.00 0.00 35 1011.7
20260509220048 26 272 0.0 0.0 0.00 0.00 0.00 35 1011.7
20260509215544 26 290 3.2 3.2 0.00 0.00 0.00 33 1011.9
20260509215041 26 286 1.6 1.6 0.00 0.00 0.00 36 1011.8
20260509214538 26 300 0.0 0.0 0.00 0.00 0.00 38 1011.7
20260509214035 26 281 0.0 0.0 0.00 0.00 0.00 38 1011.8
20260509213531 26 302 0.0 0.0 0.00 0.00 0.00 37 1011.8
20260509213028 26 290 1.6 3.2 0.00 0.00 0.00 35 1011.8
20260509212525 26 209 1.6 3.2 0.00 0.00 0.00 34 1011.7
20260509212023 26 271 0.0 1.6 0.00 0.00 0.00 37 1011.7
20260509211518 27 300 0.0 0.0 0.00 0.00 0.00 34 1012.0
20260509211015 27 272 3.2 3.2 0.00 0.00 0.00 32 1011.9
20260509210512 27 288 0.0 1.6 0.00 0.00 0.00 31 1012.0
20260509210008 27 286 1.6 1.6 0.00 0.00 0.00 32 1012.0
20260509205502 27 246 1.6 1.6 0.00 0.00 0.00 35 1012.0
20260509204958 27 290 3.2 3.2 0.00 0.00 0.00 36 1012.1
20260509204454 27 352 1.6 3.2 0.00 0.00 0.00 32 1012.2
20260509203951 27 237 0.0 1.6 0.00 0.00 0.00 38 1012.2